Bostic, NC

3:24 AM EST on December 10, 2016 (GMT -0500)
Rutherford County-Marchman

Weather History for KFQD - May, 2013

Change the Weather History Date:

Saturday, May 4, 2013

  Actual Average (KAVL) Record (KAVL)
Temperature  
Mean Temperature 54 °F -  
Max Temperature 59 °F 70 °F 88 °F (1996)
Min Temperature 50 °F 46 °F 29 °F (1971)
Degree Days  
Heating Degree Days 10    
Growing Degree Days 4 (Base 50)    
Moisture  
Dew Point 45 °F    
Average Humidity 73    
Maximum Humidity 95    
Minimum Humidity 62    
Precipitation  
Precipitation 0.15 in - - ()
Sea Level Pressure  
Sea Level Pressure 30.08 in    
Wind  
Wind Speed 9 mph (ENE)    
Max Wind Speed 15 mph    
Max Gust Speed 24 mph    
Visibility 10 miles    
Events Rain    
Averages and records for this station are not official NWS values.
T = Trace of Precipitation, MM = Missing Value Source: NWS Daily Summary

Daily Weather History Graph

Daily Weather History Graph

Search for Another Location

Airport or City:

Trip Planner

Search our weather history database for the weather conditions in past years. The results will help you decide how hot, cold, wet, or windy it might be!

Date:

Astronomy

May. 04, 2013 Rise Set
Actual Time 6:32 AM EDT 8:16 PM EDT
Civil Twilight 6:05 AM EDT 8:44 PM EDT
Nautical Twilight 5:32 AM EDT 9:17 PM EDT
Astronomical Twilight 4:57 AM EDT 9:52 PM EDT
Moon 3:19 AM EDT (5/4) 3:23 PM EDT (5/4)
Length of Visible Light 14h 38m
Length of Day
13h 43m
Waning Crescent, 27% of the Moon is Illuminated
May 4
Waning Crescent
May 9
New
May 18
First Quarter
May 25
Full
May 31
Last Quarter

Hourly Weather History & Observations

Time (EDT) Temp. Dew Point Humidity Pressure Visibility Wind Dir Wind Speed Gust Speed Precip Events Conditions
12:15 AM 59.0 °F 46.4 °F 63% 30.12 in 10.0 mi East 9.2 mph 20.7 mph N/A   Overcast
12:35 AM 58.5 °F 46.4 °F 64% 30.12 in 10.0 mi East 9.2 mph 17.3 mph N/A   Overcast
12:55 AM 58.1 °F 45.1 °F 62% 30.13 in 10.0 mi East 11.5 mph 17.3 mph N/A   Overcast
1:15 AM 57.6 °F 44.4 °F 62% 30.12 in 10.0 mi ENE 11.5 mph 17.3 mph N/A   Overcast
1:35 AM 56.8 °F 43.9 °F 62% 30.12 in 10.0 mi East 6.9 mph - N/A   Overcast
1:55 AM 56.3 °F 43.3 °F 62% 30.12 in 10.0 mi ENE 11.5 mph 16.1 mph N/A   Overcast
2:15 AM 55.6 °F 43.0 °F 63% 30.12 in 10.0 mi East 10.4 mph 18.4 mph N/A   Overcast
2:35 AM 54.7 °F 43.2 °F 65% 30.12 in 10.0 mi East 6.9 mph - N/A   Overcast
2:55 AM 54.0 °F 43.0 °F 66% 30.12 in 10.0 mi ENE 11.5 mph 18.4 mph N/A   Overcast
3:15 AM 52.9 °F 43.0 °F 69% 30.12 in 10.0 mi East 8.1 mph 17.3 mph N/A   Overcast
3:35 AM 52.7 °F 42.8 °F 69% 30.12 in 10.0 mi ENE 10.4 mph - N/A   Overcast
3:55 AM 52.0 °F 42.8 °F 71% 30.12 in 10.0 mi ENE 11.5 mph 19.6 mph N/A   Overcast
4:15 AM 51.4 °F 42.3 °F 71% 30.12 in 10.0 mi ENE 11.5 mph 19.6 mph N/A   Overcast
4:35 AM 50.9 °F 41.9 °F 71% 30.12 in 10.0 mi ENE 8.1 mph - N/A   Overcast
4:55 AM 50.9 °F 41.2 °F 69% 30.12 in 10.0 mi NE 4.6 mph - N/A   Overcast
5:15 AM 50.9 °F 41.2 °F 69% 30.12 in 10.0 mi NNE 4.6 mph - N/A   Overcast
5:35 AM 50.9 °F 41.0 °F 69% 30.12 in 10.0 mi NE 5.8 mph - N/A   Overcast
5:55 AM 50.5 °F 41.2 °F 70% 30.12 in 10.0 mi NNE 6.9 mph - N/A   Overcast
6:15 AM 50.4 °F 41.4 °F 71% 30.11 in 10.0 mi NNE 9.2 mph - N/A   Overcast
6:35 AM 50.2 °F 41.4 °F 72% 30.12 in 10.0 mi NE 9.2 mph - N/A   Overcast
6:55 AM 50.0 °F 41.5 °F 73% 30.12 in 10.0 mi NNE 6.9 mph - N/A   Overcast
7:15 AM 50.0 °F 41.9 °F 74% 30.12 in 10.0 mi NE 6.9 mph - N/A   Overcast
7:35 AM 50.0 °F 41.9 °F 74% 30.12 in 10.0 mi NNE 5.8 mph - N/A   Overcast
7:55 AM 50.0 °F 42.4 °F 75% 30.13 in 10.0 mi NE 5.8 mph - N/A   Overcast
8:15 AM 50.2 °F 42.8 °F 76% 30.13 in 10.0 mi NE 4.6 mph - N/A   Overcast
8:35 AM 50.0 °F 42.8 °F 76% 30.13 in 10.0 mi NNE 4.6 mph - N/A   Overcast
8:55 AM 50.5 °F 43.3 °F 76% 30.13 in 10.0 mi NNE 4.6 mph - N/A   Overcast
9:15 AM 50.9 °F 43.9 °F 77% 30.12 in 10.0 mi Calm Calm - N/A   Overcast
9:35 AM 52.0 °F 44.2 °F 75% 30.12 in 10.0 mi ENE 8.1 mph - N/A   Overcast
9:55 AM 52.5 °F 44.6 °F 74% 30.12 in 10.0 mi East 8.1 mph - N/A   Overcast
10:15 AM 53.1 °F 44.8 °F 73% 30.12 in 10.0 mi ENE 11.5 mph 16.1 mph N/A   Overcast
10:35 AM 52.3 °F 44.2 °F 74% 30.12 in 10.0 mi East 11.5 mph 21.9 mph N/A   Overcast
10:55 AM 52.2 °F 44.2 °F 74% 30.12 in 10.0 mi East 11.5 mph 20.7 mph N/A   Overcast
11:15 AM 52.0 °F 44.6 °F 76% 30.12 in 10.0 mi East 12.7 mph 20.7 mph N/A   Overcast
11:35 AM 52.0 °F 45.0 °F 77% 30.12 in 10.0 mi East 12.7 mph 18.4 mph N/A   Overcast
11:55 AM 52.3 °F 45.3 °F 77% 30.11 in 10.0 mi East 9.2 mph 18.4 mph N/A   Overcast
12:15 PM 52.3 °F 45.5 °F 78% 30.11 in 10.0 mi East 15.0 mph 18.4 mph N/A   Overcast
12:35 PM 52.9 °F 45.5 °F 76% 30.09 in 10.0 mi East 9.2 mph 19.6 mph N/A   Overcast
12:55 PM 53.8 °F 46.0 °F 75% 30.09 in 10.0 mi ENE 8.1 mph 18.4 mph N/A   Overcast
1:15 PM 54.0 °F 46.2 °F 75% 30.09 in 10.0 mi ENE 8.1 mph 20.7 mph N/A   Overcast
1:35 PM 53.8 °F 46.2 °F 76% 30.09 in 10.0 mi ENE 10.4 mph 18.4 mph N/A   Overcast
1:55 PM 54.0 °F 46.6 °F 76% 30.09 in 10.0 mi East 8.1 mph - N/A   Overcast
2:15 PM 54.5 °F 46.9 °F 76% 30.07 in 10.0 mi East 8.1 mph - N/A   Overcast
2:35 PM 55.2 °F 46.8 °F 73% 30.07 in 10.0 mi East 9.2 mph 17.3 mph N/A   Overcast
2:55 PM 55.8 °F 46.9 °F 72% 30.06 in 10.0 mi East 9.2 mph 17.3 mph N/A   Overcast
3:15 PM 55.8 °F 46.6 °F 71% 30.06 in 10.0 mi ENE 10.4 mph 17.3 mph N/A   Overcast
3:35 PM 56.5 °F 46.8 °F 70% 30.05 in 10.0 mi East 9.2 mph 18.4 mph N/A   Overcast
3:55 PM 57.2 °F 46.8 °F 68% 30.04 in 10.0 mi ENE 9.2 mph 16.1 mph N/A   Overcast
4:15 PM 57.4 °F 47.3 °F 69% 30.02 in 10.0 mi ENE 8.1 mph - N/A   Overcast
4:35 PM 57.6 °F 47.3 °F 69% 30.02 in 10.0 mi East 6.9 mph 16.1 mph N/A   Overcast
4:55 PM 57.6 °F 47.3 °F 69% 30.02 in 10.0 mi ENE 9.2 mph - N/A   Overcast
5:15 PM 57.6 °F 47.3 °F 69% 30.02 in 10.0 mi ENE 6.9 mph - N/A   Overcast
5:35 PM 57.6 °F 47.3 °F 69% 30.02 in 10.0 mi East 6.9 mph - N/A   Overcast
5:55 PM 57.2 °F 47.3 °F 69% 30.02 in 10.0 mi East 6.9 mph - N/A   Overcast
6:15 PM 57.2 °F 47.1 °F 69% 30.02 in 10.0 mi East 8.1 mph 18.4 mph N/A   Overcast
6:35 PM 56.8 °F 47.1 °F 70% 30.01 in 10.0 mi ENE 6.9 mph - N/A   Overcast
6:55 PM 57.0 °F 46.9 °F 69% 30.01 in 10.0 mi NE 5.8 mph - N/A   Overcast
7:15 PM 56.7 °F 48.0 °F 73% 30.00 in 10.0 mi Calm Calm - N/A Rain Light Rain
7:35 PM 56.3 °F 48.2 °F 74% 30.01 in 10.0 mi ENE 6.9 mph - N/A Rain Light Rain
7:55 PM 55.6 °F 48.7 °F 78% 30.01 in 10.0 mi ENE 3.5 mph - N/A Rain Light Rain
8:15 PM 55.9 °F 48.2 °F 75% 30.00 in 10.0 mi ENE 6.9 mph - N/A   Overcast
8:35 PM 55.9 °F 48.2 °F 75% 30.00 in 10.0 mi ENE 6.9 mph - N/A   Overcast
8:55 PM 56.3 °F 47.7 °F 73% 30.00 in 10.0 mi ENE 9.2 mph 17.3 mph N/A   Overcast
9:15 PM 56.3 °F 47.7 °F 73% 30.01 in 10.0 mi ENE 6.9 mph - N/A   Overcast
9:35 PM 56.3 °F 46.9 °F 71% 30.01 in 10.0 mi ENE 11.5 mph 24.2 mph N/A   Overcast
9:55 PM 56.3 °F 46.8 °F 70% 30.03 in 10.0 mi NE 9.2 mph 18.4 mph N/A   Overcast
10:15 PM 56.3 °F 46.9 °F 71% 30.05 in 10.0 mi ENE 4.6 mph 21.9 mph N/A   Overcast
10:35 PM 55.6 °F 47.8 °F 75% 30.06 in 10.0 mi NE 11.5 mph 16.1 mph N/A   Light Drizzle
10:55 PM 53.8 °F 49.1 °F 84% 30.06 in 5.0 mi NE 6.9 mph - 0.01 in Rain Rain
11:15 PM 52.3 °F 50.0 °F 92% 30.05 in 4.0 mi NNE 5.8 mph - 0.04 in Rain Rain
11:35 PM 51.8 °F 50.2 °F 94% 30.06 in 3.0 mi NNE 4.6 mph - 0.09 in Rain Rain
11:55 PM 51.8 °F 50.4 °F 95% 30.06 in 5.0 mi NE 5.8 mph - 0.14 in Rain Rain